Weather History for Mansfield, OH

Change the Weather History Date:

Saturday, June 29, 2013

  Actual Average Record
Temperature  
Mean Temperature 69 °F 71 °F  
Max Temperature 79 °F 81 °F 96 °F (1934)
Min Temperature 58 °F 60 °F 45 °F (1958)
Degree Days  
Heating Degree Days 0 1  
Month to date heating degree days 39 54  
Since 1 June heating degree days 39 54  
Since 1 July heating degree days 6021 6271  
Cooling Degree Days 4 6  
Month to date cooling degree days 138 129  
Year to date cooling degree days 233 175  
Since 1 June cooling degree days 138 129  
Growing Degree Days 17 (Base 50)    
Moisture  
Dew Point 62 °F    
Average Humidity 75    
Maximum Humidity 100    
Minimum Humidity 50    
Precipitation  
Precipitation 0.13 in 0.15 in 1.11 in (1949)
Month to date precipitation 6.99 4.60  
Year to date precipitation 20.86 21.93  
Snow  
Snow 0.00 in 0.00 in - ()
Month to date snowfall 0.0 0.0  
Since 1 June snowfall 0.0 0.0  
Since 1 July snowfall 39.4 48.3  
Snow Depth 0.00 in    
Sea Level Pressure  
Sea Level Pressure 29.63 in    
Wind  
Wind Speed 4 mph (West)    
Max Wind Speed 9 mph    
Max Gust Speed 18 mph    
Visibility 9 miles    
Events Rain , Thunderstorm    
T = Trace of Precipitation, MM = Missing Value Source: NWS Daily Summary

Daily Weather History Graph

Daily Weather History Graph

Search for Another Location

Airport:

Trip Planner

Search our weather history database for the weather conditions in past years. The results will help you decide how hot, cold, wet, or windy it might be!

Date:

Astronomy

Jun. 29, 2013 Rise Set
Actual Time 6:01 AM EDT 9:05 PM EDT
Civil Twilight 5:28 AM EDT 9:38 PM EDT
Nautical Twilight 4:45 AM EDT 10:21 PM EDT
Astronomical Twilight 3:55 AM EDT 11:11 PM EDT
Moon 12:31 AM EDT (6/29) 1:14 PM EDT (6/29)
Length of Visible Light 16h 10m
Length of Day
15h 04m
Waning Gibbous, 56% of the Moon is Illuminated
Jun 29
Waning Gibbous
Jun 30
Last Quarter
Jul 8
New
Jul 15
First Quarter
Jul 22
Full

Hourly Weather History & Observations

Time (EDT) Temp. Dew Point Humidity Pressure Visibility Wind Dir Wind Speed Gust Speed Precip Events Conditions
12:52 AM 62.1 °F 62.1 °F 100% 29.57 in 10.0 mi SW 5.8 mph - N/A   Scattered Clouds
1:52 AM 63.0 °F 62.1 °F 97% 29.56 in 9.0 mi WSW 5.8 mph - 0.01 in Rain Light Rain
2:52 AM 61.0 °F 60.1 °F 97% 29.57 in 10.0 mi Calm Calm - 0.00 in   Clear
3:52 AM 60.1 °F 59.0 °F 96% 29.56 in 10.0 mi South 3.5 mph - N/A   Clear
4:52 AM 57.9 °F 57.9 °F 100% 29.57 in 7.0 mi SW 4.6 mph - N/A   Partly Cloudy
5:52 AM 59.0 °F 59.0 °F 100% 29.58 in 10.0 mi SW 3.5 mph - N/A   Clear
6:52 AM 60.1 °F 59.0 °F 96% 29.59 in 4.0 mi WSW 3.5 mph - N/A   Clear
7:52 AM 64.9 °F 62.1 °F 90% 29.59 in 8.0 mi Calm Calm - N/A   Clear
8:52 AM 68.0 °F 62.1 °F 81% 29.60 in 10.0 mi West 4.6 mph - N/A   Clear
9:52 AM 70.0 °F 62.1 °F 76% 29.61 in 10.0 mi Calm Calm - N/A   Clear
10:52 AM 72.0 °F 62.1 °F 71% 29.61 in 10.0 mi WNW 5.8 mph - N/A   Clear
11:43 AM 75.2 °F 60.8 °F 61% 29.62 in 10.0 mi Calm Calm - N/A   Mostly Cloudy
11:52 AM 73.0 °F 61.0 °F 66% 29.60 in 10.0 mi WNW 6.9 mph - N/A   Mostly Cloudy
12:52 PM 73.9 °F 60.1 °F 62% 29.60 in 10.0 mi West 6.9 mph - N/A   Mostly Cloudy
12:59 PM 75.2 °F 59.0 °F 57% 29.62 in 10.0 mi Variable 6.9 mph - N/A   Partly Cloudy
1:52 PM 75.9 °F 59.0 °F 56% 29.59 in 10.0 mi Variable 4.6 mph - N/A   Partly Cloudy
2:52 PM 77.0 °F 57.9 °F 52% 29.59 in 10.0 mi Calm Calm - N/A   Mostly Cloudy
3:52 PM 73.9 °F 63.0 °F 68% 29.60 in 10.0 mi North 9.2 mph - N/A   Mostly Cloudy
4:41 PM 73.4 °F 62.6 °F 69% 29.63 in 10.0 mi North 9.2 mph - N/A Thunderstorm Overcast
4:50 PM 73.4 °F 62.6 °F 69% 29.64 in 10.0 mi North 9.2 mph - N/A Thunderstorm Overcast
4:52 PM 73.0 °F 62.1 °F 68% 29.62 in 10.0 mi North 9.2 mph - N/A Thunderstorm Thunderstorm
5:34 PM 66.2 °F 62.6 °F 88% 29.66 in 10.0 mi SSW 10.4 mph 18.4 mph 0.00 in Rain , Thunderstorm Light Thunderstorms and Rain
5:45 PM 66.2 °F 62.6 °F 88% 29.64 in 10.0 mi SSE 4.6 mph - 0.00 in Rain , Thunderstorm Light Thunderstorms and Rain
5:52 PM 68.0 °F 63.0 °F 84% 29.63 in 10.0 mi Calm Calm - 0.00 in Rain , Thunderstorm Light Thunderstorms and Rain
6:11 PM 66.2 °F 64.4 °F 94% 29.65 in 9.0 mi Variable 3.5 mph - 0.00 in Rain Light Rain
6:26 PM 66.2 °F 62.6 °F 88% 29.66 in 2.0 mi West 3.5 mph - 0.05 in Rain Rain
6:50 PM 66.2 °F 62.6 °F 88% 29.67 in 10.0 mi Calm Calm - 0.12 in Rain Light Rain
6:52 PM 66.0 °F 63.0 °F 90% 29.66 in 10.0 mi Calm Calm - 0.12 in Rain Light Rain
7:52 PM 68.0 °F 66.0 °F 93% 29.65 in 10.0 mi Calm Calm - 0.00 in   Clear
8:29 PM 66.2 °F 66.2 °F 100% 29.69 in 10.0 mi ESE 4.6 mph - N/A Thunderstorm Overcast
8:52 PM 68.0 °F 66.9 °F 96% 29.67 in 8.0 mi Calm Calm - N/A Thunderstorm Mostly Cloudy
9:02 PM 68.0 °F 66.2 °F 94% 29.69 in 10.0 mi Calm Calm - N/A   Mostly Cloudy
9:15 PM 66.2 °F 66.2 °F 100% 29.70 in 9.0 mi North 5.8 mph - N/A   Overcast
9:45 PM 66.2 °F 66.2 °F 100% 29.70 in 10.0 mi Calm Calm - N/A   Overcast
9:52 PM 66.9 °F 66.0 °F 97% 29.68 in 10.0 mi Calm Calm - N/A   Mostly Cloudy
10:41 PM 64.4 °F 64.4 °F 100% 29.71 in 9.0 mi East 8.1 mph - N/A   Partly Cloudy
10:52 PM 64.9 °F 63.0 °F 93% 29.70 in 10.0 mi ENE 8.1 mph - N/A   Scattered Clouds
11:52 PM 64.9 °F 64.0 °F 97% 29.71 in 10.0 mi Calm Calm - N/A   Mostly Cloudy